Dewpoint
46 46 46 46 47 48 48 48 50 51 50 48 45 46 47 47 48 50 51 51 51 52 53 54 56 56 52 43 40 45 49 47 39 33 31 28 22 16 16 16 21 16 15 18 19 20 25
46 46 46 46 46 46 47 47 49 49 48 49 49 45 46 47 48 48 50 50 51 51 52 54 55 56 50 38 38 47 46 42 35 30 27 30 22 16 23 24 22 21 19 19 19 19 29
46 47 47 47 47 47 47 48 49 49 49 49 49 49 46 45 46 47 48 49 50 50 50 53 55 53 48 41 40 41 39 41 34 31 26 26 24 24 26 25 27 25 21 18 17 27 31
45 45 45 46 47 48 48 47 48 49 49 50 50 49 49 46 45 46 46 47 48 49 49 51 55 51 44 41 41 40 38 36 36 30 28 26 28 26 25 26 24 22 20 18 17 27 35
44 44 45 46 46 47 47 48 47 48 49 49 50 49 49 49 48 47 46 47 48 48 49 51 51 48 41 38 34 36 34 30 35 31 26 26 26 25 25 23 22 22 18 16 19 29 34
43 44 44 45 46 46 46 47 48 48 48 49 49 50 48 48 48 47 47 46 46 48 51 52 50 44 43 27 31 31 32 29 33 26 24 26 25 23 22 22 19 20 18 19 22 29 35
43 43 44 44 46 46 45 45 46 46 48 48 49 48 49 48 47 48 47 42 40 46 48 45 42 34 34 34 35 28 31 25 31 25 22 26 23 21 20 20 21 20 17 15 25 28 31
44 45 45 45 46 46 46 46 47 47 47 48 48 47 48 49 49 48 46 40 40 38 37 41 44 43 41 38 32 29 23 23 31 27 23 24 22 22 21 20 20 22 18 13 21 27 28
46 46 46 46 46 46 46 47 47 47 48 48 48 47 48 48 48 46 41 40 40 37 36 33 34 29 27 22 20 23 25 21 30 28 26 23 24 23 22 23 22 19 15 13 15 23 23
45 46 46 46 46 46 47 47 47 47 47 48 47 48 47 46 44 42 39 46 48 45 36 25 14 21 21 19 21 23 27 21 29 27 27 24 24 22 21 22 22 17 16 18 21 21 18
45 46 46 47 47 47 47 48 48 48 48 48 48 47 47 46 44 42 42 43 44 48 -22 6 10 13 18 17 22 24 25 23 22 25 24 22 22 22 22 22 22 20 21 21 21 22 21
44 45 46 46 47 47 47 47 48 48 48 48 48 47 47 45 45 44 44 44 47 33 20 8 25 24 25 19 21 23 23 23 24 24 24 23 23 23 22 23 23 18 23 23 25 24 19
44 45 45 46 47 47 47 47 48 48 48 47 48 47 46 42 38 43 45 43 31 24 1 -6 23 26 25 24 23 22 21 19 19 22 23 24 22 23 23 21 22 19 21 21 20 20 18
44 44 45 45 46 46 47 47 48 48 48 47 47 47 46 43 42 41 43 37 26 8 11 10 5 15 24 24 25 25 24 22 20 23 23 22 20 22 22 21 19 19 19 19 17 20 26
44 44 44 45 45 46 47 48 48 48 48 47 47 46 44 43 43 43 40 29 21 15 8 -3 -1 3 23 25 25 25 23 23 23 20 21 20 20 22 21 21 20 21 20 24 31 34 29
43 43 43 44 45 46 47 47 48 48 48 48 45 43 41 43 44 41 35 28 27 25 15 11 8 9 11 21 24 24 23 23 23 21 23 23 21 22 22 21 21 20 24 23 30 23 24
43 43 43 44 45 46 46 47 47 48 48 47 44 38 41 43 43 37 28 29 26 27 26 21 10 11 11 13 13 19 22 23 21 21 23 23 22 22 24 23 20 20 20 21 28 28 24
43 43 43 43 45 45 46 46 47 48 48 47 42 32 42 42 34 33 29 29 29 23 26 25 23 17 15 17 16 15 26 28 24 23 21 22 23 20 22 25 25 24 20 21 22 23 28
42 43 43 44 45 45 45 46 47 48 48 45 37 36 42 40 28 28 29 29 28 28 26 24 24 20 20 18 17 23 29 32 36 31 22 23 20 18 21 21 25 22 21 22 23 25 24
42 42 43 43 44 44 45 45 46 47 48 46 37 30 37 39 32 29 28 27 28 29 29 28 23 23 19 19 19 24 28 33 34 37 37 26 21 19 18 20 24 23 24 22 21 22 22
42 42 43 43 44 44 44 45 46 47 47 46 37 32 34 30 32 30 29 25 26 27 27 25 22 23 22 19 20 20 29 33 34 36 38 34 22 22 20 23 24 25 25 22 21 21 26
42 42 43 44 44 44 45 45 46 46 47 44 32 34 34 30 32 31 30 26 25 25 26 24 22 22 22 20 19 20 30 36 37 40 39 38 26 24 23 23 22 21 23 23 23 24 28
42 43 44 44 43 44 46 45 45 45 47 42 40 38 33 31 33 32 29 28 26 27 25 25 24 23 23 24 22 32 39 41 42 39 39 38 35 26 22 24 23 22 24 22 22 24 23
43 43 43 43 43 43 43 44 44 44 45 42 41 37 34 31 29 31 29 29 27 29 26 25 25 23 23 25 41 42 40 40 40 41 41 38 37 34 24 26 23 24 25 24 22 21 21
42 42 42 42 42 42 43 43 43 44 44 42 41 38 34 31 30 29 30 28 29 29 29 27 27 26 24 22 30 30 32 31 34 36 39 39 36 33 27 24 25 26 23 21 20 20 22
42 42 43 43 43 44 43 43 43 43 44 42 39 42 38 32 32 29 29 30 27 27 27 27 29 28 26 20 28 22 22 26 27 30 35 38 37 33 33 25 23 26 28 27 24 20 23
45 45 44 44 44 44 44 44 43 43 43 43 41 41 40 34 33 32 28 29 29 28 27 27 27 27 29 25 20 25 26 31 25 24 31 32 32 31 30 31 30 32 27 25 20 21 23
44 44 44 44 44 44 45 44 43 43 43 42 41 42 38 33 36 35 32 30 30 29 27 28 28 28 28 24 26 28 28 30 28 28 29 31 30 31 33 31 28 37 33 25 35 34 32
43 44 43 43 43 44 44 44 44 43 43 43 39 42 41 37 39 40 38 39 36 37 33 29 27 26 29 27 31 30 25 28 26 22 24 26 30 31 33 35 37 37 36 40 39 38 38
Wind_Speed
12 12 14 15 16 15 15 15 13 14 15 15 15 15 16 17 18 17 17 19 20 20 19 19 19 19 11 5 15 6 8 7 6 7 9 13 14 14 19 11 18 8 10 12 15 11 2
13 13 15 14 15 16 17 16 14 15 15 16 16 16 17 16 16 19 19 20 21 21 20 18 17 15 3 15 9 11 11 7 11 10 10 18 12 16 11 16 16 14 13 10 17 18 3
17 16 16 16 14 16 17 16 14 15 15 16 15 16 17 18 16 19 22 23 23 22 21 19 16 7 9 26 10 7 9 8 12 13 15 19 19 8 9 15 13 21 18 12 23 4 2
19 19 19 18 16 16 18 17 16 15 15 15 15 15 17 17 19 19 21 25 26 26 23 19 12 4 11 12 19 22 26 22 17 18 21 19 7 5 5 10 15 15 14 13 22 15 4
20 20 20 20 19 17 17 18 17 16 15 15 15 15 15 17 19 21 23 27 32 29 22 15 5 6 14 13 11 16 19 17 18 19 14 12 3 5 11 11 14 13 21 21 17 11 8
22 22 22 21 20 19 19 19 17 17 17 15 15 15 16 17 17 20 23 31 36 16 10 8 8 7 10 7 7 8 18 17 15 13 11 13 4 12 10 11 15 20 12 5 1 6 10
23 23 23 23 21 21 22 22 20 18 17 16 14 13 14 17 17 16 16 11 2 1 6 11 11 8 19 14 22 9 13 14 18 12 19 13 12 21 20 22 24 23 21 17 9 11 10
24 26 26 26 26 25 25 24 22 20 18 16 15 11 12 15 16 13 9 6 8 4 14 16 25 29 30 21 19 27 18 14 19 20 17 18 26 22 24 26 23 21 19 14 11 5 9
24 26 27 27 27 26 26 25 22 21 19 16 15 11 10 14 14 11 15 17 20 22 8 20 31 21 27 18 30 30 15 24 13 19 19 22 17 26 27 26 21 21 11 12 11 6 12
26 27 27 26 27 27 26 24 22 21 19 16 15 12 9 11 8 9 7 8 18 9 9 10 13 12 17 19 16 36 23 22 17 24 22 18 25 27 27 24 18 15 15 9 8 6 9
27 27 26 25 26 26 25 24 23 21 19 18 15 13 10 8 15 8 10 21 27 1 10 10 6 7 13 24 10 23 34 18 27 27 15 26 14 23 24 19 11 17 11 5 7 12 14
28 28 27 27 26 25 25 24 23 21 20 19 17 15 12 5 8 13 21 22 9 3 15 7 8 10 9 27 21 5 23 23 14 22 25 24 22 24 24 17 13 16 5 4 7 9 19
29 28 27 27 27 25 24 24 23 23 22 21 18 18 15 9 8 8 15 9 5 15 8 9 7 13 12 11 24 27 16 20 21 25 28 24 28 26 18 16 12 17 6 4 6 12 19
30 29 29 28 27 26 25 24 23 22 22 22 20 19 14 14 14 8 9 2 14 11 25 4 6 14 15 12 18 21 25 25 25 20 11 22 22 25 17 21 17 19 13 9 6 4 7
32 31 30 29 28 27 25 25 24 22 22 22 22 12 10 14 16 4 6 21 16 14 17 26 25 19 16 15 11 21 25 24 19 28 23 17 28 13 25 13 13 11 12 12 6 3 1
34 32 31 31 30 28 26 25 24 23 23 24 12 10 14 18 13 8 10 29 22 15 23 24 19 11 8 7 14 13 14 14 25 29 31 12 14 24 25 19 20 19 5 9 4 5 6
34 32 32 32 31 28 27 26 25 25 25 24 13 7 12 20 14 10 28 24 27 23 25 12 19 18 23 20 13 17 14 16 15 27 31 27 23 16 7 7 13 13 18 10 10 9 6
34 34 33 33 32 30 29 28 27 27 28 23 8 10 18 22 18 15 41 18 16 13 24 24 12 13 19 23 17 22 10 12 13 19 29 25 8 24 27 7 13 20 22 18 14 13 6
37 36 36 34 33 32 31 30 29 30 31 13 9 6 14 22 23 32 29 35 32 27 20 12 20 17 18 25 13 11 7 14 23 11 21 19 24 22 17 17 13 15 16 12 12 14 21
36 37 36 35 34 34 34 32 32 32 35 20 11 13 9 24 23 32 30 30 32 13 29 34 25 21 32 30 23 13 10 9 22 20 29 27 20 24 35 12 11 17 16 22 22 16 17
38 37 36 36 35 35 35 35 34 35 37 29 11 11 12 28 43 29 26 10 31 25 23 15 22 34 29 19 23 19 11 8 14 20 18 12 21 22 25 19 21 17 24 24 24 25 22
38 36 36 36 37 36 36 34 39 38 37 31 13 12 16 13 22 33 30 38 36 22 23 26 31 30 23 27 30 22 9 3 0 13 14 15 12 16 14 17 24 27 22 28 24 10 20
36 35 32 30 30 27 32 32 33 35 36 27 10 11 15 21 19 28 47 50 38 20 27 31 28 28 28 38 21 14 2 13 10 2 11 9 11 10 26 15 16 30 30 21 15 18 20
34 33 32 32 32 31 33 34 35 38 37 22 7 12 14 11 34 42 34 35 28 22 31 22 29 27 43 12 5 11 10 6 7 11 7 13 11 9 15 14 24 17 16 19 18 20 20
33 34 35 35 35 35 35 36 38 38 38 24 12 19 17 21 33 30 33 31 24 27 28 27 30 20 12 17 19 10 2 1 5 7 17 9 5 10 16 26 9 17 9 14 17 21 14
36 36 36 36 37 38 38 39 40 39 38 28 11 12 11 29 21 29 28 24 20 27 29 31 29 17 11 18 12 20 14 10 6 4 13 12 5 18 1 15 29 4 17 15 8 25 5
34 34 34 36 37 38 39 41 42 41 37 23 12 19 4 13 21 17 22 27 23 21 21 20 21 16 9 13 20 15 15 1 7 12 10 8 9 9 7 3 7 6 11 12 20 10 15
25 26 28 30 32 35 39 42 43 42 38 32 16 26 15 2 6 10 19 17 21 24 22 8 14 20 14 19 14 9 11 12 9 18 4 12 13 5 4 4 10 19 6 7 13 20 22
17 19 22 25 30 34 39 43 44 42 40 36 11 21 16 6 3 8 7 3 9 7 10 17 16 8 14 9 6 4 7 14 16 14 20 14 12 13 14 8 13 11 11 5 8 18 19
Wind_Direction
314 310 303 304 305 308 307 307 322 331 325 310 306 311 310 315 320 320 323 323 320 317 314 313 319 326 345 296 254 193 172 180 174 164 215 232 250 247 253 269 295 267 249 281 318 308 111
305 302 300 298 300 301 299 302 305 298 306 311 306 302 306 309 317 321 319 318 316 314 311 308 314 330 250 268 250 185 181 171 215 189 230 240 249 244 277 305 307 315 309 314 299 289 95
304 295 289 292 294 296 299 299 297 294 293 297 308 303 300 304 312 315 316 312 310 308 306 304 304 311 254 245 271 243 284 222 225 210 229 250 254 289 322 314 322 317 299 281 280 231 233
299 294 297 298 296 291 288 286 290 296 295 296 299 306 303 302 307 308 308 303 301 299 296 287 289 275 254 257 248 267 268 266 223 234 240 260 333 340 305 290 303 301 300 276 276 217 148
292 290 293 293 290 284 285 283 284 285 291 298 290 296 307 307 306 308 307 304 297 292 282 263 273 208 266 294 244 247 241 239 228 240 248 270 288 262 276 270 284 272 262 268 287 190 161
291 291 290 287 285 288 285 280 282 279 282 283 290 290 302 304 305 308 311 307 287 281 252 209 253 258 264 258 236 228 223 244 223 214 234 245 253 238 259 244 251 266 270 289 232 264 153
292 291 291 291 289 287 285 283 281 279 280 279 282 292 297 302 306 310 330 333 340 24 199 214 196 237 297 291 317 193 205 230 237 210 212 215 223 238 244 240 239 258 274 287 200 245 193
288 287 285 283 281 279 277 277 275 273 272 274 274 286 297 308 304 308 310 267 255 55 295 253 249 253 255 264 281 288 183 202 219 228 198 229 226 231 242 252 255 264 273 303 43 221 204
291 290 286 282 281 280 277 273 272 271 268 267 265 271 289 305 313 296 244 248 289 315 287 282 241 236 236 232 247 255 215 202 210 228 215 214 231 223 239 251 255 272 265 287 280 194 254
286 285 283 280 277 275 273 271 268 266 265 262 260 250 266 298 303 274 262 327 311 253 282 269 233 243 222 211 240 227 242 197 223 223 232 240 235 247 255 248 226 275 278 287 307 333 275
287 286 282 279 275 269 264 261 260 258 258 257 251 243 234 236 308 306 350 328 323 202 284 256 215 178 184 179 153 209 218 226 206 224 206 234 252 236 250 252 248 255 243 245 294 305 309
285 282 279 277 273 267 263 259 253 252 251 249 244 229 223 258 256 266 305 311 309 170 243 264 160 170 154 190 227 343 187 212 217 221 241 252 238 248 248 251 230 263 200 259 275 268 277
283 280 279 275 271 267 265 259 252 243 243 242 238 232 210 220 244 303 337 308 193 220 202 232 190 167 192 193 211 227 203 202 210 211 232 249 255 252 258 246 218 257 203 236 251 255 258
283 282 280 274 268 266 263 258 250 238 233 234 232 233 217 221 255 295 319 226 227 226 232 332 154 303 189 201 210 215 221 231 221 218 206 231 250 241 236 224 216 237 218 204 257 245 300
283 280 277 274 270 266 262 256 248 236 225 228 224 229 210 222 240 202 238 205 227 210 203 241 272 297 208 195 212 201 221 230 236 214 218 210 240 254 238 235 207 246 201 194 129 83 6
280 275 277 275 267 260 256 253 247 236 220 219 212 211 204 205 207 200 235 231 236 230 276 284 284 277 295 210 199 215 201 216 230 212 211 246 254 238 252 225 221 217 205 181 135 193 243
277 271 273 270 263 258 252 246 242 232 222 212 197 215 183 188 181 206 221 224 233 244 261 288 261 264 284 294 312 282 219 232 236 207 204 216 240 271 239 228 213 202 227 231 179 177 218
273 269 268 267 259 254 249 243 234 228 215 202 192 214 184 163 197 209 227 213 243 235 225 248 299 278 266 282 300 300 258 297 242 217 209 209 218 235 251 255 256 236 210 216 219 234 216
272 267 267 261 254 248 245 238 231 223 205 192 194 147 186 169 205 215 230 236 248 263 259 259 247 250 270 270 283 301 318 315 340 313 229 214 224 242 258 240 266 233 220 226 230 214 236
269 269 264 258 252 249 240 236 228 220 206 196 158 171 181 201 221 216 219 234 236 243 238 255 271 265 267 278 269 271 279 307 343 317 343 225 214 221 227 212 209 246 244 234 233 224 238
269 266 262 256 251 244 241 234 223 219 207 194 169 211 185 204 213 220 214 223 228 231 233 222 254 253 243 252 277 259 269 331 322 323 335 305 225 234 223 209 225 220 226 234 239 230 224
269 263 261 256 249 244 233 232 231 213 206 211 175 190 191 227 206 207 225 227 228 214 218 218 230 245 247 248 250 271 208 137 144 334 330 325 278 216 241 207 220 249 268 236 248 240 229
264 262 252 246 244 241 225 211 210 213 204 211 166 215 180 206 195 199 217 227 228 219 252 234 225 236 247 242 256 283 175 144 145 93 328 320 344 214 225 227 242 258 243 257 238 255 259
262 253 248 243 239 233 225 220 216 209 207 220 204 178 206 198 195 212 215 225 231 220 229 255 224 223 239 302 130 92 76 84 129 157 154 298 337 280 233 182 224 248 215 242 255 251 262
255 250 247 244 239 232 226 221 219 214 209 211 182 201 190 210 205 209 212 216 216 227 241 236 251 256 233 221 239 245 163 177 224 217 200 145 350 297 231 206 243 251 222 201 224 257 259
260 254 249 244 238 231 224 219 216 216 212 202 190 219 195 199 212 213 209 205 207 214 232 250 260 258 258 219 212 237 238 225 225 241 176 131 185 281 38 209 227 23 249 267 315 264 269
262 255 247 242 235 229 224 218 214 214 209 203 189 199 237 180 209 206 206 203 204 211 220 228 237 257 238 231 224 219 238 307 228 193 186 142 122 282 322 294 294 298 199 212 246 265 287
257 251 241 235 229 224 217 211 209 209 204 195 188 179 187 126 242 215 203 196 199 209 215 225 210 232 228 216 205 178 202 202 219 266 227 172 140 168 223 258 254 20 352 209 331 323 299
269 257 248 243 234 223 216 208 202 200 197 189 191 170 182 206 264 270 221 138 196 172 199 223 220 219 210 187 193 181 193 178 192 227 267 215 191 175 172 218 273 283 289 304 309 324 315